Location: Betzi
(47.2343°N, 9.5260°E)
Time: 21:23:03
(UTC+00:00)

USA 229 DEB - Pass Details

Date: 27 May 2022
Orbit: 934 x 1278 km, 63.4° (Epoch: 24 May)

Event Time Altitude Azimuth Distance (km) Brightness Sun altitude
Rises 00:16:43 0° 318° (NW) 3,983 7.2 -20.3°
Reaches altitude 10° 00:19:24 10° 314° (NW) 3,067 6.4 -20.2°
Maximum altitude 00:26:33 54° 240° (WSW) 1,450 4.1 -19.8°
Enters shadow 00:30:40 28° 176° (S) 2,158 4.8 -19.6°
